Flag for Canada Weather past 2 weeks in Hay River, Northwest Territories, Canada

Now
12 °F

Passing clouds.


Feels Like: 2 °F
Forecast: 8 / 25 °F
Wind: 7 mph from East

Location: Hay River

Current Time: Feb 28, 2015 at 6:05:23 PM

Latest Report: Feb 28, 2015 at 5:00 PM


Visibility: 15 mi

Pressure: 30.33 "Hg

Humidity: 48%

Dew point: -4 °F

Location of Hay RiverLocation

Historic Weather in Hay River — Graph

°F

Hay River temperature yesterday

Maximum temperature yesterday: 27 °F (at 8:00 PM)
Minimum temperature yesterday: -6 °F (at 3:00 AM)
Average temperature yesterday: 13 °F

Past Weeks' High & Low Weather Summary

 TemperatureHumidityPressure
High27 °F (Feb 22, 4:00 PM)93% (Feb 22, 10:00 AM)30.85 "Hg (Feb 22, 10:00 AM)
Low-29 °F (Feb 21, 2:00 AM)48% (Feb 28, 4:00 PM)29.85 "Hg (Feb 22, 3:00 PM)
Average3 °F75%30.36 "Hg
* Reported Feb 13 5:00 PM — Feb 28 5:00 PM, Hay River, Weather by CustomWeather, © 2015

Note: Actual official high and low records may vary slightly from our data, if they occured in-between our weather recording intervals... More about our weather records

Advertising

Hay River weather history for previous 24 hours

 ConditionsComfort  
Time TempWeatherWind HumidityBarometerVisibility
5:00 PM
Sat, Feb 28
12 °FPassing clouds.7 mph48%30.33 "Hg15 mi
4:00 PM14 °FScattered clouds.5 mph48%30.33 "Hg15 mi
3:00 PM14 °FScattered clouds.2 mph52%30.33 "Hg15 mi
2:00 PM14 °FScattered clouds.7 mph62%30.32 "Hg15 mi
1:00 PM14 °FPartly sunny.7 mph57%30.32 "Hg15 mi
12:00 PM16 °FPartly sunny.7 mph67%30.30 "Hg15 mi
11:00 AM16 °FLight snow. Mostly cloudy.13 mph79%30.28 "Hg15 mi
10:00 AM23 °FLight mixture of precip. More clouds than sun.16 mph86%30.22 "Hg12 mi
9:52 AM23 °FLight mixture of precip. More clouds than sun.17 mph86%30.22 "Hg12 mi
9:00 AM23 °FPartly sunny.14 mph80%30.19 "Hg15 mi
8:00 AM23 °FPartly sunny.18 mph80%30.17 "Hg15 mi
7:00 AM23 °FPassing clouds.16 mph80%30.16 "Hg15 mi
6:00 AM21 °FPassing clouds.16 mph86%30.16 "Hg15 mi
5:00 AM23 °FPassing clouds.16 mph80%30.15 "Hg15 mi
4:00 AM25 °FOvercast.16 mph74%30.14 "Hg15 mi
3:00 AM25 °FLight snow. Overcast.18 mph74%30.12 "Hg14 mi
2:00 AM25 °FOvercast.15 mph74%30.11 "Hg15 mi
1:00 AM27 °FOvercast.13 mph80%30.10 "Hg15 mi
12:49 AM27 °FOvercast.12 mph80%30.10 "Hg15 mi
12:00 AM27 °FLight snow. Overcast.14 mph86%30.10 "Hg15 mi
11:00 PM
Fri, Feb 27
27 °FOvercast.16 mph86%30.09 "Hg15 mi
10:00 PM25 °FLight snow. Overcast.12 mph86%30.09 "Hg8 mi
9:00 PM25 °FLight snow. Overcast.14 mph80%30.11 "Hg5 mi
8:00 PM27 °FLight snow. Mostly cloudy.8 mph69%30.11 "Hg15 mi
7:00 PM25 °FMostly cloudy.12 mph74%30.13 "Hg15 mi
6:56 PM25 °FMostly cloudy.10 mph74%30.13 "Hg15 mi
6:00 PM25 °FMostly cloudy.13 mph69%30.14 "Hg15 mi
Weather by CustomWeather, © 2015

See weather overviewHow to use our weather pages